169  
ASUS42 KTAE 160016  
RWRTAE  
RWRTAE  
NORTH FLORIDA/SOUTH ALABAMA/SOUTHWEST GEORGIA WEATHER ROUNDUP  
NATIONAL WEATHER SERVICE TALLAHASSEE FLORIDA  
800 PM EDT SUN SEP 15 2019  
 
NOTE: "FAIR" INDICATES FEW OR NO CLOUDS BELOW 12,000 FEET WITH NO  
SIGNIFICANT WEATHER AND/OR S TO VISIBILITY
.  
 
!FLZ017-115-028-034-025-160100   
..NORTH FLORIDA
 
 
 
CITY SKY/WX TMP DP RH WIND PRES REMARKS
 
TALL INTL ARPT MOCLDY 88 71 57 N5 29.97R HX 94  
FSU LOVE BLDG N/A 88 70 55 NE3 N/A HX 92  
APALACHICOLA FAIR 83 75 77 CALM 29.96R HX 90  
PERRY FAIR 85 76 74 CALM 29.97R HX 93  
CROSS CITY N/A 82 75 80 NE5 29.97R  
JACKSONVILLE MOCLDY 80 74 81 NE9 29.95F  

 
 
!FLZ112-006-005-002-011-160100   
..FLORIDA PANHANDLE
 
 
 
CITY SKY/WX TMP DP RH WIND PRES REMARKS
 
MARIANNA FAIR 86 69 56 E5 29.98R HX 90  
BONIFAY FAIR 82 68 62 CALM 30.00R  
PANAMA CITY NW FAIR 86 68 54 CALM 29.97R  
TYNDALL AFB FAIR 84 76 77 S7 29.98R HX 93  
TYND DRONE APT FAIR 83 76 79 SW5 29.98R HX 92  
DE FUNIAK SPR NOT AVBL  
EGLIN AFB FAIR 89 64 43 E5 29.98R HX 90  
DESTIN FAIR 87 67 51 NE3 29.98R HX 90  
HURLBURT PTCLDY 88 68 51 E5 29.97R HX 91  
CRESTVIEW FAIR 85 68 56 CALM 30.00R  
PENSACOLA FAIR 84 74 71 S5 29.99R HX 91  

 
 
!ALZ063-066-160100   
..SOUTH ALABAMA
 
 
 
CITY SKY/WX TMP DP RH WIND PRES REMARKS
 
DOTHAN FAIR 86 69 56 CALM 30.03S HX 90  
OZARK CAIRNS FAIR 86 67 51 E3 30.00R  
FT RUCKER HELI FAIR 86 67 52 CALM 29.99S  
RUCKER HELI 3 FAIR 86 66 50 E3 29.99S  
RUCKER HELI 2 FAIR 88 68 50 CALM 29.98S HX 92  
FLORALA APT FAIR 86 65 49 CALM 30.01R  
ANDALUSIA FAIR 87 67 51 CALM 30.00R HX 90  
TROY FAIR 84 71 65 CALM 30.01S  
EUFALA NOT AVBL  
MOBILE FAIR 86 71 60 NE3 29.99S HX 91  

 
 
!GAZ120>161-160100   
..SOUTHWEST AND SOUTH CENTRAL GEORGIA
 
 
 
CITY SKY/WX TMP DP RH WIND PRES REMARKS
 
THOMASVILLE FAIR 82 68 61 CALM 30.00R  
BAINBRIDGE FAIR 85 68 56 NE6 29.99S  
MOODY AFB FAIR 83 73 71 NE3 29.98S  
VALDOSTA FAIR 85 69 58 CALM 29.98S  
MOULTRIE FAIR 81 68 65 CALM 30.00S  
BLAKELY FAIR 81 66 61 CALM 30.00S  
ALBANY MOCLDY 87 68 52 CALM 30.01S HX 90  
TIFTON FAIR N/A N/A N/A CALM 29.99  
FITZGERALD MOCLDY 86 70 58 NE3 30.02S HX 90  
CORDELE FAIR 83 68 60 CALM 30.01S  
AMERICUS FAIR 86 68 54 CALM 30.03S  
HOMERVILLE FAIR 81 70 69 E3 29.99S  

 
 
!GMZ750-755-770-775-160100   
..COASTAL AND BUOY OBS
 
 
 
STATION/POSITION TIME TEMP WIND PRES VSBY WAVE
 
AIR SEA DIR/SP/G HT/PER  
(UTC) (F) (DEG/KT/KT) (MB) (MI) (FT/S)  
KEATON BEACH 0000 84 80/ 3/ 4 1014.9R  
CEDAR KEY 0000 83 60/ 10/ 13 1014.9R  
C TOWER 0000 84 110/ 4/ 4 1015.1R  
APALACHICOLA BUO 0000 85 40/ 8/ 10 1015.2  
PANAMA CITY BUOY 0000 85 70/ 10/ 12 1014.8  
MOBILE BUOY 0000 83 80/ 17/ 21 1014.7  
ORANGE BCH AL BU 0000 85 86 110/ 8/ 8 1015.1  

 
 
 
CLICK HERE TO GO TO PREVIOUS BULLETINS.

The Nexlab FL Page
The Nexlab GA Page
The Nexlab AL Page Main Text Page